STARLINK-34673, 65090

Orbit data source: Space-Track

STARLINK-34673, 65090 is a payload satellite owned by SpaceX/Seattle (US) in LEO that was launched on Mon, 04 Aug 2025 UTC via an FALCON 9 launch vehicle from the Air Force Eastern Test Range (AFETR). Payload-class satellites include a variety of spacecraft equipped with specific instruments for various scientific and technological missions. These include communications satellites like Starlink; space stations such as the ISS; scientific satellites like the Hubble; Earth observation satellites from companies like Planet Labs, Umbra, and HawkEye 360; GPS; miniature CubeSats for education and research; and military/defense satellites.

Loading next visibility...
Identifier
65090, 2025-167N
Orbit
LEO
Country
Flag of USUS
Related business
Manufacturer
SpaceX/Seattle
Mission
Operational spacecraft
Bus & Motor
STARLINK V2MO, Unknown motor
Mass
575 kg wet, ~530 kg dry
Launch date (UTC)
2025-08-04 (1 month ago)
Launch vehicle
FALCON 9
Launch site
Air Force Eastern Test Range (AFETR)
Object type
Payload
Rocket body
Debris
Shape & HBR
Unknown
Radar Cross Section
Large (>1 m²)

Expand to show TLE details & history
Last TLE update: 12 hours ago

TLE from 12 hours ago
0 STARLINK-34673
1 65090U 25167N   25243.11535489  .00588355  00000-0  37083-2 0  9990
2 65090  53.1583 195.3275 0001960 173.4036 186.7010 15.74436063  4252
Epoch: 2025-08-31T02:46Z
TLE epoch observation values (Epoch: 2025-08-31T02:46:06.662Z)
Latitude
-0.00003°
Longitude
174.25979°
Altitude
348.462 km
Speed
7.7 km/s
True Right ascension
13h 01m 18s
True Declination
0° 00' 00"
Sunlit
Object was in daylight at epoch
Visualization orbit readout
Latitude
Unknown
Longitude
Unknown
Altitude
Unknown
Speed
Unknown
Apparent Right ascension
Unknown
Apparent Declination
Unknown
Sunlit
N/A
Visualization observer readout
Local Sidereal Time
06:13:02
Azimuth
Unknown
Elevation
Unknown
Doppler factor
Unknown
Orbital elements
Apogee altitude
347.816 km
Perigee altitude
345.18 km
Semi-major axis
6,724.635 km
Eccentricity
0.0002
Inclination
53.1583°
RAAN
195.3275°
Arg. of periapsis
173.4036°
True anomaly
186.69838°
Mean anomaly
186.701°
Eccentric anomaly
186.69969°
Mean motion
3.93586 °/min
Orbital period
91.47 mins
BSTAR
0.0037083
Loading maneuver chart data...
Computing Atmospheric mass density...
Loading historical data...
Loading historical data...
Loading historical data...
Loading historical data...
Loading historical data...
Loading historical data...
Loading historical data...

Documentation

Showing up to 5 results
|